Back to catalog

STARLINK-4569

AliveCommunicationsSSO
NORAD 53687·PAYLOAD·🇺🇸 United States

Launched Aug 31, 2022 from Vandenberg Space Force Base

Loading…

Next Passes (next 24 hours)

TLE

FreshSource: CelesTrak SupGP

Epoch: Sep 14, 2026, 13:34 UTC

1 53687C 22105AR  26257.56576389  .00058924  00000+0  18281-2 0  2576
2 53687  97.2839 134.3724 0002046  84.9924 237.4071 15.33426891    18

Track STARLINK-4569 in real time with AllMySat

Download on the App Store